This is the latest recevied weather packets stored in our database for station/object K8RRT. If no packets are shown the sender has not sent any weather packets the latest 10 day(s).
| Time | Temp. | Humidity | Pressure | Rain* | Wind** | Luminosity | Snow |
|---|---|---|---|---|---|---|---|
| 1788297679 | 34.44° C | 58% | 1013.4 hPa | 0 mm | - | 334 W/m² | - |
| 1788297371 | 35° C | 58% | 1013.5 hPa | 0 mm | - | 355 W/m² | - |
| 1788297067 | 34.44° C | 58% | 1013.6 hPa | 0 mm | - | 399 W/m² | - |
| 1788296763 | 34.44° C | 60% | 1013.7 hPa | 0 mm | - | 313 W/m² | - |
| 1788296459 | 33.89° C | 61% | 1013.6 hPa | 0 mm | - | 383 W/m² | - |
| 1788296154 | 35° C | 58% | 1013.7 hPa | 0 mm | - | 392 W/m² | - |
| 1788295848 | 35° C | 58% | 1013.7 hPa | 0 mm | - | 441 W/m² | - |
| 1788295544 | 33.89° C | 60% | 1013.8 hPa | 0 mm | - | 443 W/m² | - |
| 1788295239 | 33.89° C | 61% | 1013.9 hPa | 0 mm | - | 482 W/m² | - |
| 1788294939 | 34.44° C | 59% | 1013.7 hPa | 0 mm | - | 490 W/m² | - |
| 1788294634 | 34.44° C | 62% | 1013.7 hPa | 0 mm | - | 472 W/m² | - |
| 1788294329 | 33.89° C | 61% | 1013.8 hPa | 0 mm | - | 523 W/m² | - |
| 1788294025 | 34.44° C | 61% | 1013.9 hPa | 0 mm | - | 558 W/m² | - |
| 1788293720 | 33.89° C | 62% | 1014.1 hPa | 0 mm | - | 549 W/m² | - |
| 1788293414 | 33.89° C | 63% | 1013.9 hPa | 0 mm | - | 540 W/m² | - |
| 1788293109 | 33.89° C | 61% | 1014.1 hPa | 0 mm | - | 549 W/m² | - |
| 1788292808 | 33.89° C | 64% | 1013.8 hPa | 0 mm | - | 524 W/m² | - |
| 1788292506 | 34.44° C | 62% | 1014.1 hPa | 0 mm | - | 550 W/m² | - |
| 1788292206 | 34.44° C | 60% | 1013.9 hPa | 0 mm | - | 645 W/m² | - |
| 1788291901 | 33.89° C | 64% | 1014.1 hPa | 0 mm | - | 662 W/m² | - |
| 1788291597 | 33.33° C | 63% | 1014.4 hPa | 0 mm | - | 656 W/m² | - |
| 1788291296 | 33.89° C | 64% | 1014.2 hPa | 0 mm | - | 292 W/m² | - |
| 1788290996 | 33.89° C | 66% | 1014.3 hPa | 0 mm | - | 186 W/m² | - |
| 1788290692 | 34.44° C | 64% | 1014.3 hPa | 0 mm | - | 671 W/m² | - |
| 1788290388 | 33.89° C | 65% | 1014.6 hPa | 0 mm | - | 722 W/m² | - |
* Rain latest hour (hover to see other rain measurements)
** Current wind speed in m/s (hover to see current wind gust speed)